Regional Weather Roundup
Issued by NWS Little Rock, AR

Home | Current Version | Previous Version | Graphics & Text | Print | Product List | Glossary On
Versions: 1 2 3 4 5 6 7 8 9 10 11 12 13 14 15 16 17 18 19 20 21 22 23 24 25 26 27 28 29 30 31 32 33 34 35 36 37 38 39 40 41 42 43 44 45 46 47 48 49 50
000
ASUS44 KLZK 170105
RWRLZK

WEATHER ROUNDUP FOR ARKANSAS
NATIONAL WEATHER SERVICE LITTLE ROCK AR
800 PM CDT TUE SEP 16 2014

NOTE: "FAIR" INDICATES FEW OR NO CLOUDS BELOW 12,000 FEET WITH NO
SIGNIFICANT WEATHER AND/OR OBSTRUCTIONS TO VISIBILITY.

ARZ001-003-010-029-170200-
NORTHWEST ARKANSAS

CITY           SKY/WX    TMP DP  RH WIND       PRES   REMARKS
FAYETTEVILLE   MOCLDY    71  69  93 CALM      30.06F
FORT SMITH     CLEAR     76  69  79 E8        30.01S
HARRISON       CLOUDY    65  64  97 E5        30.08F
BENTONVILLE    CLOUDY    72  64  78 E6        30.06F
ROGERS         MOCLDY    69  65  86 E3        30.07F
SILOAM SPGS    PTCLDY    72  64  78 CALM      30.06F
HIGHFILL       PTCLDY    71  68  90 S3        30.05F
SPRINGDALE     MOCLDY    72  68  88 NE7       30.08F
$$

ARZ004-005-016-170200-
NORTH CENTRAL ARKANSAS

CITY           SKY/WX    TMP DP  RH WIND       PRES   REMARKS
BATESVILLE     CLOUDY    68  59  73 E5        30.06S
FLIPPIN        CLOUDY    66  59  77 CALM      30.07F
MTN HOME       CLOUDY    67  63  87 CALM      30.06F
$$

ARZ040-041-170200-
WEST CENTRAL ARKANSAS

CITY           SKY/WX    TMP DP  RH WIND       PRES   REMARKS
MENA           PTCLDY    77  73  88 CALM      30.04R
MOUNT IDA      PTCLDY    77  71  82 VRB5      30.01S
$$

ARZ009-017-025-026-028-170200-
NORTHEAST ARKANSAS

CITY           SKY/WX    TMP DP  RH WIND       PRES   REMARKS
CORNING          N/A     66  63  88 CALM      30.08S
JONESBORO      CLOUDY    68  59  73 NE6       30.06F
NEWPORT        PTCLDY    66  61  84 N7        30.07R
WALNUT RIDGE   CLOUDY    66  57  72 N6        30.06F
BLYTHEVILLE    CLOUDY    68  61  78 N7        30.07S
$$

ARZ022-023-033-042-044-170200-
CENTRAL ARKANSAS

CITY           SKY/WX    TMP DP  RH WIND       PRES   REMARKS
LITTLE ROCK    PTCLDY    71  65  81 NE6       30.04R
N LITTLE ROCK  PTCLDY    69  67  94 NE5       30.04R
JACKSONVILLE   PTCLDY    70  66  89 CALM      30.04S
SEARCY         CLEAR     70  62  75 NE10      30.06R
HOT SPRINGS    CLOUDY    76  73  91 NE6       30.02R
RUSSELLVILLE     N/A    N/A N/A N/A MISG      30.04S
CLINTON        CLOUDY    70  70 100 CALM      30.05F
$$

ARZ036-170200-
EAST ARKANSAS

CITY           SKY/WX    TMP DP  RH WIND       PRES   REMARKS
WEST MEMPHIS   MOCLDY    70  64  81 NE8       30.03S
$$

ARZ050-053-066-070-073-170200-
SOUTHWEST ARKANSAS

CITY           SKY/WX    TMP DP  RH WIND       PRES   REMARKS
ARKADELPHIA    FAIR      75  73  93 CALM      30.00S
CAMDEN         CLEAR     73  68  83 CALM      29.99S
TEXARKANA      CLEAR     77  71  82 E3        30.00R
EL DORADO      PTCLDY    75  72  90 CALM      30.00F
DE QUEEN       CLEAR     76  73  91 CALM      29.98R
$$

ARZ056-057-069-170200-
SOUTHEAST ARKANSAS

CITY           SKY/WX    TMP DP  RH WIND       PRES   REMARKS
PINE BLUFF     MOCLDY    73  67  81 N8        30.03R
STUTTGART      CLOUDY    70  64  83 N5        30.05R
MONTICELLO     CLEAR     79  70  74 NE5       30.00S

$$





USA.gov is the U.S. government's official web portal to all federal, state and local government web resources and services.